Probability
0 0 0 0 0 0 0 0 0 0 0 0 0 0 0 0 0 0 0 0 0 0 0 0 0 0 0 0 0 0 0 0 0 0 0 0 0 0 0 0 0 0 0 0
0 0 0 0 0 0 0 0 0 0 0 0 0 0 0 0 0 0 0 0 0 0 0 0 0 0 0 0 0 0 0 0 0 0 0 0 0 0 0 0 0 0 0 0
0 0 0 0 0 0 0 0 0 0 0 0 0 0 0 0 0 0 0 0 0 0 0 0 0 0 0 0 0 0 0 0 0 0 0 0 0 0 0 0 0 0 0 0
0 0 0 0 0 0 0 0 0 0 0 0 0 0 0 0 0 0 0 0 0 0 0 0 0 0 0 0 0 0 0 0 0 0 0 0 0 0 0 0 0 0 0 0
0 0 0 0 0 0 0 0 0 0 0 0 0 0 0 0 0 0 0 0 0 0 0 0 0 0 0 0 0 0 0 0 0 0 0 0 0 0 0 0 0 0 0 0
0 0 0 0 0 0 0 0 0 0 0 0 0 0 0 0 0 0 0 0 0 0 0 0 0 0 0 0 0 0 0 0 0 0 0 0 0 0 0 0 0 0 0 0
0 0 0 0 0 0 0 0 0 0 0 0 0 0 0 0 0 0 0 0 0 0 0 0 0 0 0 0 0 0 0 0 0 0 0 0 0 0 0 0 0 0 0 0
0 0 0 0 0 0 0 0 0 0 0 0 0 0 0 0 0 0 0 0 0 0 0 0 0 0 0 0 0 0 0 0 0 0 0 0 0 0 0 0 0 0 0 0
0 0 0 0 0 0 0 0 0 0 0 0 0 0 0 0 0 0 0 0 0 0 0 0 0 0 0 0 0 0 0 0 0 0 0 0 0 0 0 0 0 0 0 0
0 0 0 0 0 0 0 0 0 0 0 0 0 0 0 0 0 0 0 0 0 0 0 0 0 0 0 0 0 0 0 0 0 0 0 0 0 0 0 0 0 0 0 0
0 0 0 0 0 0 0 0 0 0 0 0 0 0 0 0 0 0 0 0 0 0 0 0 0 0 0 0 0 0 0 0 0 0 0 0 0 0 0 0 0 0 0 0
0 0 0 0 0 0 0 0 0 0 0 0 0 0 0 0 0 0 0 0 0 0 0 0 0 0 0 0 0 0 0 0 0 0 0 0 0 0 0 0 0 0 0 0
0 0 0 0 0 0 0 0 0 0 0 0 0 0 0 0 0 0 0 0 0 0 0 0 0 0 0 0 0 0 0 0 0 0 0 0 0 0 0 0 0 0 0 0
0 0 0 0 0 0 0 0 0 0 0 0 0 0 0 0 0 0 0 0 0 0 0 0 0 0 0 0 0 0 0 0 0 0 0 0 0 0 0 0 0 0 0 0
0 0 0 0 0 0 0 0 0 0 0 0 0 0 0 0 0 0 0 0 0 0 0 0 0 0 0 0 0 0 0 0 0 0 0 0 0 0 0 0 0 0 0 0
0 0 0 0 0 0 0 0 0 0 0 0 0 0 0 0 0 0 0 0 0 0 0 0 0 0 0 0 0 0 0 0 0 0 0 0 0 0 0 0 0 0 0 0
0 0 0 0 0 0 0 0 0 0 0 0 0 0 0 0 0 0 0 0 0 0 0 0 0 0 0 0 0 0 0 0 0 0 0 0 0 0 0 0 0 0 0 0
0 0 0 0 0 0 0 0 0 0 0 0 0 0 0 0 0 0 0 0 0 0 0 0 0 0 0 0 0 0 0 0 0 0 0 0 0 0 0 0 0 0 0 0
0 0 0 0 0 0 0 0 0 0 0 0 0 0 0 0 0 0 0 0 0 0 0 0 0 0 0 0 0 0 0 0 0 0 0 0 0 0 0 0 0 0 0 0
0 0 0 0 0 0 0 0 0 0 0 0 0 0 0 0 0 0 0 0 0 0 0 0 0 0 0 0 0 0 0 0 0 0 0 0 0 0 0 0 0 0 0 0
0 0 0 0 0 0 0 0 0 0 0 0 0 0 0 0 0 0 0 0 0 0 0 0 0 0 0 0 0 0 0 0 0 0 0 0 0 0 0 0 0 0 0 0
0 0 0 0 0 0 0 0 0 0 0 0 0 0 0 0 0 0 0 0 0 0 0 0 0 0 0 0 0 0 0 0 0 0 0 0 0 0 0 0 0 0 0 0
0 0 0 0 0 0 0 0 0 0 0 0 0 0 0 0 0 0 0 0 0 0 0 0 0 0 0 0 0 0 0 0 0 0 0 0 0 0 0 0 0 0 0 0
0 0 0 0 0 0 0 0 0 0 0 0 0 0 0 0 0 0 0 0 0 0 0 0 0 0 0 0 0 0 0 0 0 0 0 0 0 0 0 0 0 0 0 0
0 0 0 0 0 0 0 0 0 0 0 0 0 0 0 0 0 0 0 0 0 0 0 0 0 0 0 0 0 0 0 0 0 0 0 0 0 0 0 0 0 0 0 0
0 0 0 0 0 0 0 0 0 0 0 0 0 0 0 0 0 0 0 0 0 0 0 0 0 0 0 0 0 0 0 0 0 0 0 0 0 0 0 0 0 0 0 0
0 0 0 0 0 0 0 0 0 0 0 0 0 0 0 0 0 0 0 0 0 0 0 0 0 0 0 0 0 0 0 0 0 0 0 0 0 0 0 0 0 0 0 0
Wind_Speed
3 4 4 5 6 5 5 5 6 5 6 7 5 5 4 3 2 2 2 3 3 4 5 5 6 6 6 6 6 5 5 5 6 6 6 6 6 5 5 5 5 5 5 5
3 2 4 5 8 7 6 6 7 7 8 5 3 2 3 3 3 3 3 3 3 4 5 5 6 6 6 6 6 5 5 5 6 6 6 6 6 6 6 6 6 5 5 5
2 5 4 6 6 7 5 5 6 7 5 2 3 3 4 3 3 3 3 3 3 4 4 5 5 6 6 6 6 5 5 5 6 6 6 6 6 6 6 6 6 6 6 6
2 2 4 2 1 3 5 6 7 7 5 4 4 3 3 3 4 4 3 3 3 3 4 4 5 5 5 5 5 5 5 6 6 6 6 6 6 6 6 5 5 5 6 6
1 2 7 7 3 4 5 6 6 8 7 5 3 2 3 3 4 4 4 3 3 3 4 4 5 5 5 5 5 5 6 6 7 7 6 6 6 6 6 6 6 6 6 6
2 3 6 2 2 1 2 5 4 6 7 5 4 3 3 2 2 2 2 2 2 2 3 3 4 4 4 4 5 5 6 7 7 7 6 6 6 6 6 5 6 6 5 6
5 6 9 4 2 4 4 3 2 6 6 6 6 4 2 1 2 2 2 2 2 2 2 3 3 3 3 4 5 6 6 7 6 6 6 6 6 5 6 5 6 5 5 5
6 6 9 6 7 8 5 0 3 5 5 6 5 4 2 2 3 2 2 2 2 2 3 3 3 3 3 4 5 5 6 6 6 6 5 5 5 5 5 5 5 5 5 6
10 8 2 7 8 4 1 3 3 4 5 5 5 5 4 4 3 3 3 2 2 2 3 2 2 2 3 4 5 5 5 5 5 6 5 5 5 5 5 4 4 4 4 5
8 11 9 9 9 7 6 6 5 5 5 5 6 6 5 4 4 3 3 2 2 2 3 3 3 2 3 4 4 4 5 5 5 5 5 4 4 4 4 4 4 4 5 5
9 9 7 9 12 12 9 8 7 6 6 7 7 7 6 5 4 4 3 2 2 3 4 4 3 3 3 3 3 4 4 4 4 4 4 5 4 4 5 4 5 6 5 5
10 8 7 5 4 7 8 9 8 7 6 5 7 7 5 5 4 4 3 3 3 3 4 4 3 3 3 3 3 3 4 4 3 4 4 4 4 5 5 6 8 9 9 9
7 4 5 4 3 5 6 7 6 7 7 6 5 5 5 5 4 3 3 4 4 5 4 4 4 4 3 3 3 3 4 4 3 3 4 4 4 5 6 6 7 8 9 11
8 5 6 7 7 5 5 4 4 3 4 4 4 3 4 4 3 4 5 5 4 4 4 4 4 5 3 3 3 3 4 4 4 3 3 4 4 4 4 5 6 6 7 10
12 11 9 4 2 2 3 3 3 5 4 4 4 4 5 5 6 6 5 3 2 3 4 4 5 5 3 2 3 4 4 3 3 3 3 3 4 4 4 5 5 6 6 7
6 6 6 6 8 6 5 5 6 7 6 5 5 6 6 5 5 4 3 3 4 5 5 5 6 5 2 3 4 3 3 4 3 3 3 3 3 4 4 4 5 5 6 6
6 8 8 9 10 9 9 9 8 7 6 7 7 5 4 3 3 4 5 4 5 6 5 6 6 4 3 4 4 3 3 3 4 3 3 3 3 4 4 4 4 5 5 7
11 10 9 8 8 8 8 8 7 7 7 6 4 4 5 6 7 6 5 3 3 5 6 6 5 3 3 4 4 3 3 3 3 3 3 3 3 4 4 4 5 6 6 6
10 9 8 7 7 6 6 7 7 6 5 5 5 6 7 7 6 5 3 3 5 7 6 4 5 4 4 5 4 3 4 4 4 4 3 4 4 4 4 4 5 5 6 6
7 7 6 6 5 5 6 5 5 5 5 5 5 5 6 6 5 4 5 6 7 5 3 3 4 4 4 4 4 3 4 4 4 4 3 4 4 4 4 5 5 5 5 5
8 7 7 6 5 5 5 5 5 6 5 6 7 7 7 5 4 4 5 6 5 4 3 4 4 4 3 3 4 4 4 4 4 4 4 4 4 4 5 5 5 5 5 5
6 6 6 6 5 5 4 4 5 5 5 6 6 5 5 5 5 5 7 6 4 3 3 3 4 4 4 4 4 4 4 4 4 4 4 4 4 4 5 5 5 5 5 5
5 6 6 6 6 4 3 4 5 5 6 7 7 7 7 6 5 5 5 4 3 4 4 4 4 5 5 4 4 4 4 4 4 4 4 4 4 5 5 5 5 5 5 5
5 5 5 4 4 4 4 5 4 4 4 5 5 5 5 4 4 5 4 3 4 4 4 4 6 6 5 3 4 4 4 4 4 4 4 4 4 4 5 5 5 5 5 7
5 5 5 5 5 5 5 3 3 3 3 3 4 4 4 4 4 3 2 3 4 4 3 4 5 5 4 4 4 4 4 4 4 4 4 4 5 5 5 5 5 5 5 6
5 5 5 5 4 3 3 3 3 3 3 3 3 3 2 2 3 3 2 3 4 4 3 3 3 3 3 4 4 4 4 4 4 4 5 5 5 5 5 5 6 5 5 6
3 3 2 2 2 3 3 3 4 4 4 3 3 2 2 2 2 2 3 3 3 3 2 2 3 3 3 3 4 4 4 4 4 4 4 4 5 5 5 6 5 5 5 6
Wind_Direction
294 297 281 271 266 253 239 240 241 251 258 265 265 261 255 253 266 295 321 330 337 338 341 345 348 348 348 346 346 346 349 353 352 348 346 345 345 343 341 339 337 333 327 325
302 321 307 280 268 250 246 244 243 259 269 276 273 230 227 236 243 264 286 303 319 328 333 337 342 343 346 346 346 349 353 350 346 345 344 344 343 341 340 339 336 333 327 323
283 325 309 273 249 220 223 227 224 240 246 219 213 224 235 235 242 256 272 292 306 314 319 326 334 338 339 337 339 346 347 344 343 341 339 338 336 338 336 332 331 325 325 324
310 345 256 259 94 215 232 246 234 249 251 233 238 243 254 247 242 255 274 291 302 309 317 327 332 332 331 332 338 341 342 340 338 335 332 330 332 332 330 326 321 319 321 320
189 272 279 283 232 205 221 262 233 234 244 246 234 275 258 238 233 250 268 285 295 309 318 324 329 329 329 334 339 340 339 336 333 330 326 326 327 325 325 322 318 317 317 319
175 238 252 263 126 164 198 270 222 211 222 220 188 234 259 200 226 258 277 288 298 312 319 321 326 328 330 333 336 336 332 328 326 324 320 318 317 318 318 315 311 312 313 315
207 240 264 255 164 162 202 268 175 197 206 198 207 245 300 196 235 242 253 273 289 295 301 309 318 323 322 326 328 327 324 322 322 321 316 311 313 316 315 314 313 313 312 312
184 215 252 172 162 198 223 73 182 198 205 207 224 248 251 238 241 239 249 263 268 275 290 310 321 317 312 316 323 327 324 321 320 319 317 317 319 318 318 315 313 314 313 313
201 222 273 178 205 223 218 218 212 209 214 214 223 239 249 252 246 242 245 253 263 269 283 302 319 313 301 313 326 325 321 317 315 318 319 322 320 320 320 320 315 315 315 313
248 257 250 237 241 243 234 235 237 225 222 217 227 239 244 246 247 250 249 248 254 254 265 280 299 303 298 312 322 317 313 314 316 319 323 327 322 319 318 319 318 317 316 314
247 263 275 254 234 235 234 235 237 231 223 221 226 236 238 241 241 243 249 248 240 242 254 268 284 291 305 313 314 307 305 307 313 315 319 319 318 312 312 309 313 313 312 309
227 219 210 232 216 210 213 221 222 219 221 221 219 229 231 236 238 240 244 245 247 251 257 267 274 282 296 305 299 294 299 307 310 312 316 315 316 315 307 307 316 318 318 317
233 221 225 248 238 209 215 222 217 214 218 221 221 221 223 232 235 233 238 237 240 247 254 261 267 274 286 293 286 276 282 293 299 303 306 311 314 316 317 319 315 319 325 327
234 230 248 238 235 222 216 216 204 210 221 220 218 217 220 228 234 232 238 241 242 244 248 249 257 267 279 279 274 272 275 279 283 289 295 299 302 305 306 310 315 317 323 326
229 224 232 235 230 220 204 186 201 226 226 225 213 213 214 220 230 238 244 237 226 235 240 243 253 263 267 255 259 264 270 274 281 287 289 291 294 296 297 299 301 307 314 321
218 217 223 230 237 232 215 212 224 235 228 223 219 219 217 223 235 244 233 204 214 240 243 241 250 261 247 244 256 260 262 272 280 280 282 285 288 290 293 297 301 305 309 316
195 216 214 223 230 228 220 219 224 230 222 221 224 217 206 212 234 242 237 225 232 244 245 240 251 253 233 233 243 254 261 266 263 267 269 274 279 282 287 291 293 297 299 305
219 224 213 211 217 221 225 220 220 221 221 221 209 196 202 211 229 240 242 234 243 254 248 244 248 242 233 235 237 250 253 256 256 260 266 269 275 278 280 282 287 292 297 305
223 225 224 219 217 213 218 219 219 219 214 198 197 212 220 226 233 236 222 216 233 249 250 233 243 239 239 239 238 240 246 252 257 259 263 268 270 271 273 277 282 288 293 299
219 219 217 217 211 208 215 215 206 210 208 194 200 214 227 232 227 220 216 230 236 244 245 229 231 234 235 235 237 237 242 248 254 259 262 264 268 273 275 276 279 283 288 291
214 213 210 211 213 212 212 205 199 211 208 194 203 216 226 231 217 208 219 244 245 233 234 229 229 235 234 233 230 234 237 242 249 253 256 261 266 272 275 278 280 281 285 288
206 204 208 207 205 214 212 202 203 207 205 208 215 216 218 227 223 223 230 242 249 221 228 232 234 233 234 233 229 232 237 242 246 249 252 255 259 266 273 278 280 282 284 286
195 196 199 200 203 206 202 202 204 205 209 213 214 215 220 226 221 223 244 232 226 226 234 237 240 238 235 232 233 235 239 243 247 249 252 255 258 262 267 273 276 279 282 285
190 190 193 184 168 180 212 223 214 213 217 225 224 220 217 224 234 235 250 229 222 229 238 239 239 238 233 233 234 238 242 245 247 251 254 256 259 261 264 268 272 276 279 283
189 183 176 176 190 209 216 205 198 208 213 226 231 225 219 224 232 236 231 232 231 235 245 242 240 238 232 233 234 238 243 245 249 253 253 256 259 260 263 266 268 273 277 279
187 193 197 200 201 198 190 190 205 214 213 226 234 227 224 225 227 228 226 227 228 234 241 240 234 230 234 238 241 243 248 252 252 252 254 259 263 265 266 269 273 275 277 279
178 181 182 196 204 196 194 199 209 217 215 219 233 229 218 212 213 220 226 228 229 234 240 243 239 237 240 244 248 250 254 256 257 259 261 263 265 268 271 273 276 277 279 280